sat.trackr.live / text

‹ back to catalog

STARLINK-1012

NORAD 44718 · 2019-074F

PAYLOAD ACTIVE UNKNOWN

§ Identity

Operator
Country
US
Launch date
2019-11-11
Launch site
AFETR
Launch vehicle
Mass (kg)
RCS (m²)

Purposes: comms

External: N2YO · Heavens-Above · Gunter

§ Orbital elements

Epoch: 2026-09-10T03:46:00.746112Z

Period
92.04 min
Inclination
53.1505°
Eccentricity
0.0003061
Mean motion
15.64597273 rev/d
Perigee alt
372.3 km
Apogee alt
376.5 km
Semi-major
6,752.5 km
B*
4.6297e-4
RAAN
17.8576°
Arg perigee
322.7409°
Mean anomaly
37.3394°
Rev number
37,744

§ Raw data

STARLINK-10121 44718U 19074F   26253.15695308  .00045290  00000+0  46297-3 0  99902 44718  53.1505  17.8576 0003061 322.7409  37.3394 15.64597273377449

JSON: /api/v1/satellites/44718 · /tle

For live sub-satellite position, see the globe view (requires WebGL).

§ Visibility from observer

Set your observer location to see the next 7 days of passes ≥ 10°. The values pass through the URL so the page stays shareable.

No JS? Fill the form by hand. The geolocation button needs JavaScript.